This is the latest recevied weather packets stored in our database for station/object WB4FAY-4. If no packets are shown the sender has not sent any weather packets the latest 10 day(s).
| Time | Temp. | Humidity | Pressure | Rain* | Wind** | Luminosity | Snow |
|---|---|---|---|---|---|---|---|
| 1777924217 | 25.56° C | 36% | 1015.2 hPa | 0 mm | - | - | - |
| 1777923918 | 25.56° C | 40% | 1015.3 hPa | 0 mm | - | - | - |
| 1777923617 | 25.56° C | 39% | 1015.3 hPa | 0 mm | - | - | - |
| 1777923317 | 25° C | 39% | 1015.4 hPa | 0 mm | - | - | - |
| 1777923017 | 25° C | 40% | 1015.5 hPa | 0 mm | - | - | - |
| 1777922717 | 25° C | 40% | 1015.5 hPa | 0 mm | - | - | - |
| 1777922417 | 25° C | 39% | 1015.7 hPa | 0 mm | - | - | - |
| 1777922118 | 25° C | 41% | 1015.7 hPa | 0 mm | - | - | - |
| 1777921817 | 25° C | 43% | 1015.7 hPa | 0 mm | - | - | - |
| 1777921517 | 25° C | 43% | 1015.8 hPa | 0 mm | - | - | - |
| 1777921217 | 25° C | 43% | 1015.8 hPa | 0 mm | - | - | - |
| 1777920917 | 24.44° C | 40% | 1015.9 hPa | 0 mm | - | - | - |
| 1777920618 | 25° C | 41% | 1016 hPa | 0 mm | - | - | - |
| 1777920317 | 24.44° C | 40% | 1016.2 hPa | 0 mm | - | - | - |
| 1777920017 | 25° C | 39% | 1016.2 hPa | 0 mm | - | - | - |
| 1777919717 | 25° C | 39% | 1016.2 hPa | 0 mm | - | - | - |
| 1777919417 | 25° C | 41% | 1016.3 hPa | 0 mm | - | - | - |
| 1777919118 | 24.44° C | 41% | 1016.4 hPa | 0 mm | - | - | - |
| 1777918817 | 24.44° C | 42% | 1016.5 hPa | 0 mm | - | - | - |
| 1777918517 | 24.44° C | 42% | 1016.6 hPa | 0 mm | - | - | - |
| 1777918217 | 24.44° C | 42% | 1016.5 hPa | 0 mm | - | - | - |
| 1777917918 | 24.44° C | 44% | 1016.5 hPa | 0 mm | - | - | - |
| 1777917617 | 24.44° C | 42% | 1016.8 hPa | 0 mm | - | - | - |
| 1777917318 | 24.44° C | 41% | 1016.9 hPa | 0 mm | - | - | - |
| 1777917017 | 25° C | 46% | 1016.9 hPa | 0 mm | - | - | - |
* Rain latest 24 hours (hover to see other rain measurements)
** Current wind speed in m/s (hover to see current wind gust speed)